Eastlakes Real Estate, NSW, 2018 Bayside (NSW)

Thinking about buying in Eastlakes? Now could not be a better time, with a whopping 3543 properties either residential or commercial there's certainly plenty to choose from.

The average property price for this area is $748,000 with prices in this suburb ranging from $427,000 to $1,086,000.

Distance to the coast is 2 Km.

Eastlakes Real Estate Market Outlook

Prices are above market average and increase steadily under persistent demand. A more sustainable rate of price growth is anticipated in the short to medium term. In this area of average incomes, there is a mix of housing size and quality. While this may present buying opportunities, growth may be constrained. As buyers begin to examine Eastlakes due to other areas being out of the price range and the trend to working from home, "gentrification" may incease price growth. The high percentage of professional people in Eastlakes classifies the area as "gentrified". This implies high demand for quality housing, generally of larger than average size. Price growth is ensured even where the state affordability index is negatively impacting other areas. High density population in Eastlakes requires consistent turnover in housing ensuring constant demand. Housing styles may be a mix of low, medium, and high density, providing choice for well-financed buyers and value growth over time. High industry presence in the wider area is a double-edged sword. While local employment options are high, the presence of industrial buildings may negatively impact lifestyle perception. Demand from first home buyers and investors however ensures good price growth.

About

For Sale

Elders Real Estate UNIT 9, 14 EVANS AV, EASTLAKES, NSW, 2018 3 1 1 Auction
McGrath UNIT 1, 4 MALONEY ST, EASTLAKES, NSW, 2018 2 1 1 For Sale $600,000 - $650,000
RayWhite UNIT 2, 283 GARDENERS RD, EASTLAKES, NSW, 2018 2 1 1 Price Guide: $590…

More

Local Schools


Eastlakes Public School

(While the above schools are located with the suburb of Eastlakes there may also be nearby schools whose catchments cover this suburb)

Local Crime Stats


Average Local Climate by month


(mm)
RAIN
Min (°C)
TEMP
Max (°C)
TEMP
Min (%)
HUMIDITY
Max (%)
HUMIDITY
(m/sec)
WIND
(MJ/sq m)
SOLAR
Jan2.420.328.550.988.36.223.1
Feb4.120.227.552.787.86.020.1
Mar4.918.826.451.487.45.616.5
Apr3.515.623.949.486.95.014.0
May2.112.021.145.583.25.111.4
Jun4.110.018.350.886.15.29.2
Jul2.18.918.641.880.85.210.5
Aug2.09.419.636.878.15.713.2
Sept1.512.322.436.881.25.817.5
Oct2.014.824.141.484.16.021.0
Nov2.617.125.845.785.66.223.3
Dec2.018.927.446.786.46.224.6

source: Australian Government Bureau of Meteorology

Recently Sold

11-05-2022 $608,000 3 O ROURKE CRES EASTLAKES 2018
03-05-2022 $1,980,000 59 GEORGE ST EASTLAKES 2018
03-05-2022 $2,050,000 24 UNIVERSAL ST EASTLAKES 2018
20-04-2022 $1,780,000 75 SPARKS ST EASTLAKES 2018
05-04-2022 $670,000 40 / 28 EVANS AVE EASTLAKES 2018
04-04-2022 $2,780,000 64 VERNON AVE EASTLAKES 2018
01-04-2022 $645,000 2 / 78 MASCOT DR EASTLAKES 2018
07-03-2022 $640,000 12 / 6 HEARNE CL EASTLAKES 2018
24-02-2022 $698,000 6 / 193 GARDENERS RD EASTLAKES 2018
24-02-2022 $698,000 16 / 193 GARDENERS RD EASTLAKES 2018
17-02-2022 $305,000 6 / 14 BARBER AVE EASTLAKES 2018
01-02-2022 $1,900,000 26 MASCOT DR EASTLAKES 2018
27-01-2022 $2,120,000 38 WESTCOTT ST EASTLAKES 2018
19-01-2022 $671,000 6 / 9 EVANS AVE EASTLAKES 2018
17-01-2022 $2,145,000 66 VERNON AVE EASTLAKES 2018
22-12-2021 $431,000 20 / 66 MASCOT DR EASTLAKES 2018
20-12-2021 $650,000 1 / 49 UNIVERSAL ST EASTLAKES 2018
17-12-2021 $640,000 14 / 68 MASCOT DR EASTLAKES 2018
17-12-2021 $1,220,000 17 FLORENCE AVE EASTLAKES 2018
08-12-2021 $2,375,000 4 WESTCOTT ST EASTLAKES 2018
06-12-2021 $751,000 16 / 22 BARBER AVE EASTLAKES 2018
29-11-2021 $650,000 31 MASCOT DR EASTLAKES 2018
29-11-2021 $2,190,000 19 GEORGE ST EASTLAKES 2018
24-11-2021 $2,205,000 33 WESTCOTT ST EASTLAKES 2018
10-11-2021 $2,020,000 4 GARDEN ST EASTLAKES 2018
08-11-2021 $670,000 3 / 29 MASCOT DR EASTLAKES 2018
05-11-2021 $1,775,000 36 VERNON AVE EASTLAKES 2018
02-11-2021 $2,310,000 4 KING ST EASTLAKES 2018
01-11-2021 $1,500,000 4 KYOGLE ST EASTLAKES 2018
29-10-2021 $1,855,000 36 WESTCOTT ST EASTLAKES 2018
22-10-2021 $175,000 14 / 62 HILLARY CRES EASTLAKES 2018
15-10-2021 $1,220,000 1 / 20 GEORGE ST EASTLAKES 2018
14-10-2021 $2,370,000 46 KING ST EASTLAKES 2018
11-10-2021 $1,895,000 10 HARRY ST EASTLAKES 2018
29-09-2021 $645,000 7 / 21 EVANS AVE EASTLAKES 2018
28-09-2021 $702,250 9 / 2 BARBER AVE EASTLAKES 2018
16-09-2021 $665,000 1 / 38 UNIVERSAL ST EASTLAKES 2018
15-09-2021 $425,000 10 / 20 EVANS AVE EASTLAKES 2018
14-09-2021 $650,000 2 / 49 UNIVERSAL ST EASTLAKES 2018
10-09-2021 $475,000 2 / 22 BARBER AVE EASTLAKES 2018
09-09-2021 $270,000 5 / 2 HEARNE CL EASTLAKES 2018
09-09-2021 $1,325,000 35 UNIVERSAL ST EASTLAKES 2018
09-09-2021 $270,000 5 / 2 HEARNE CL EASTLAKES 2018
09-09-2021 $1,325,000 35 UNIVERSAL ST EASTLAKES 2018
08-09-2021 $665,000 22 / 28 EVANS AVE EASTLAKES 2018
07-09-2021 $570,000 4 / 82 MASCOT DR EASTLAKES 2018
07-09-2021 $1,950,000 37 UNIVERSAL ST EASTLAKES 2018
07-09-2021 $570,000 4 / 82 MASCOT DR EASTLAKES 2018
07-09-2021 $1,950,000 37 UNIVERSAL ST EASTLAKES 2018
01-09-2021 $1,185,000 39 GARDEN ST EASTLAKES 2018

Residz covers 12m+ Australian properties and brings together a wealth of data to give you a better understanding of an area. From crime and schools to bush fire, flood risk and more. Begin your search for properties for sale or learn more about where you currently reside. Residz is an exciting next-generation Real Estate platform getting better by the day!